Orbital Elements at Epoch 2459200.5 (2020-Dec-17.0) TDB
Reference: JPL 21 (heliocentric ecliptic J2000)
Element | Value | Uncertainty (1-sigma) | Units |
e | .1364436915242799 | 4.0045e-08 | |
a | 2.966735614601448 | 1.5005e-08 | au |
q | 2.561943255568673 | 1.2281e-07 | au |
i | 12.54597275199355 | 4.7333e-06 | deg |
node | 55.15811286399728 | 1.8112e-05 | deg |
peri | 7.203836282193167 | 2.582e-05 | deg |
M | 333.9278885345755 | 1.7644e-05 | deg |
tp | 2459335.673138674177 (2021-May-01.17313867) | 9.1731e-05 | TDB |
period | 1866.451437477062 5.11 | 1.4161e-05 3.877e-08 | d yr |
n | .192879382110591 | 1.4634e-09 | deg/d |
Q | 3.371527973634223 | 1.7053e-08 | au |
|
| | Orbit Determination Parameters
Additional Information
|